LOT3908 EPKK-EPWA

Flight info

Callsign LOT3908
Flight time 0h 32m
Altitude 27000
Route POBOK M985 KOTEK M866 LOGDA
Aircraft E190/M-SDE3GILORVW/S

Departure

Time 2026-05-01 10:55
Airport Kraków John Paul II International Airport (EPKK)

Arrival

Time 2026-05-01 11:27
Airport Warsaw Chopin Airport (EPWA)
Time Latitude Longitude Altitude Speed Heading
2026-05-01 10:35 50.07344 19.80112 800 ft 0 kts 166°
2026-05-01 10:47 50.07343 19.80112 800 ft 0 kts 166°
2026-05-01 10:47 50.07350 19.80110 800 ft 2 kts 166°
2026-05-01 10:48 50.07364 19.80104 800 ft 2 kts 166°
2026-05-01 10:48 50.07379 19.80099 800 ft 2 kts 166°
2026-05-01 10:48 50.07389 19.80095 800 ft 0 kts 166°
2026-05-01 10:48 50.07400 19.80085 800 ft 2 kts 128°
2026-05-01 10:49 50.07406 19.80063 800 ft 2 kts 87°
2026-05-01 10:49 50.07405 19.80054 800 ft 0 kts 77°
2026-05-01 10:51 50.07406 19.80061 800 ft 2 kts 77°
2026-05-01 10:51 50.07412 19.80109 800 ft 6 kts 81°
2026-05-01 10:51 50.07424 19.80197 800 ft 7 kts 78°
2026-05-01 10:51 50.07436 19.80287 800 ft 9 kts 77°
2026-05-01 10:52 50.07476 19.80380 800 ft 11 kts 19°
2026-05-01 10:52 50.07551 19.80416 800 ft 11 kts 17°
2026-05-01 10:52 50.07642 19.80407 800 ft 14 kts 348°
2026-05-01 10:52 50.07755 19.80367 800 ft 17 kts 347°
2026-05-01 10:53 50.07842 19.80337 800 ft 4 kts 347°
2026-05-01 10:53 50.07843 19.80337 800 ft 0 kts 347°
2026-05-01 10:53 50.07847 19.80336 800 ft 3 kts 347°
2026-05-01 10:54 50.07903 19.80317 800 ft 12 kts 348°
2026-05-01 10:54 50.08001 19.80273 800 ft 14 kts 320°
2026-05-01 10:54 50.08003 19.80129 800 ft 14 kts 256°
2026-05-01 10:54 50.07967 19.79873 800 ft 58 kts 259°
2026-05-01 10:55 50.07814 19.78789 801 ft 143 kts 258°
2026-05-01 10:55 50.07571 19.77065 1177 ft 178 kts 259°
2026-05-01 10:55 50.07314 19.75118 2127 ft 188 kts 261°
2026-05-01 10:55 50.07048 19.73210 3114 ft 186 kts 261°
2026-05-01 10:56 50.06770 19.71254 3956 ft 191 kts 261°
2026-05-01 10:56 50.06470 19.69114 4458 ft 217 kts 261°
2026-05-01 10:56 50.06175 19.66649 4910 ft 246 kts 274°
2026-05-01 10:56 50.06728 19.64177 5740 ft 249 kts 313°
2026-05-01 10:57 50.08165 19.62756 6636 ft 253 kts 349°
2026-05-01 10:57 50.09891 19.62883 7296 ft 254 kts 10°
2026-05-01 10:57 50.11646 19.63213 7001 ft 251 kts
2026-05-01 10:57 50.13380 19.63579 6995 ft 252 kts 15°
2026-05-01 10:58 50.14937 19.64902 7018 ft 254 kts 34°
2026-05-01 10:58 50.16330 19.66535 6994 ft 248 kts 35°
2026-05-01 10:58 50.17683 19.68188 7039 ft 257 kts 39°
2026-05-01 10:58 50.19102 19.70083 7664 ft 273 kts 39°
2026-05-01 10:59 50.20507 19.71941 8834 ft 268 kts 39°
2026-05-01 10:59 50.21892 19.73763 10177 ft 259 kts 39°
2026-05-01 10:59 50.23235 19.75525 11245 ft 257 kts 39°
2026-05-01 10:59 50.24607 19.77322 12060 ft 267 kts 39°
2026-05-01 11:00 50.26121 19.79117 12804 ft 280 kts 36°
2026-05-01 11:00 50.27705 19.80966 13689 ft 287 kts 37°
2026-05-01 11:00 50.29301 19.82842 14694 ft 291 kts 37°
2026-05-01 11:00 50.30894 19.84722 15736 ft 291 kts 37°
2026-05-01 11:01 50.32497 19.86617 16763 ft 292 kts 37°
2026-05-01 11:01 50.34103 19.88518 17718 ft 295 kts 38°
2026-05-01 11:01 50.35742 19.90461 18617 ft 298 kts 37°
2026-05-01 11:01 50.37396 19.92424 19476 ft 302 kts 37°
2026-05-01 11:02 50.39069 19.94411 20301 ft 306 kts 37°
2026-05-01 11:02 50.40756 19.96416 21150 ft 308 kts 37°
2026-05-01 11:02 50.42454 19.98436 21986 ft 310 kts 38°
2026-05-01 11:02 50.44175 20.00486 22764 ft 314 kts 38°
2026-05-01 11:03 50.45916 20.02561 23534 ft 317 kts 38°
2026-05-01 11:03 50.47691 20.04680 24305 ft 320 kts 38°
2026-05-01 11:03 50.49464 20.06798 24997 ft 324 kts 37°
2026-05-01 11:03 50.51255 20.08938 25625 ft 329 kts 37°
2026-05-01 11:04 50.53070 20.11110 26270 ft 332 kts 38°
2026-05-01 11:04 50.54922 20.13329 26869 ft 328 kts 37°
2026-05-01 11:04 50.56760 20.15533 26922 ft 342 kts 38°
2026-05-01 11:04 50.58689 20.17849 26948 ft 361 kts 38°
2026-05-01 11:05 50.60732 20.20304 26975 ft 379 kts 37°
2026-05-01 11:05 50.62862 20.22866 26991 ft 396 kts 38°
2026-05-01 11:05 50.65111 20.25286 26978 ft 381 kts 30°
2026-05-01 11:05 50.67459 20.27001 26895 ft 356 kts 25°
2026-05-01 11:06 50.69659 20.28497 26728 ft 335 kts 25°
2026-05-01 11:06 50.71724 20.29909 26496 ft 318 kts 26°
2026-05-01 11:06 50.73719 20.31279 26203 ft 304 kts 26°
2026-05-01 11:07 50.77447 20.33843 25499 ft 283 kts 26°
2026-05-01 11:07 50.79313 20.35132 24835 ft 310 kts 25°
2026-05-01 11:07 50.81368 20.36550 24448 ft 334 kts 25°
2026-05-01 11:07 50.83518 20.38033 24038 ft 338 kts 25°
2026-05-01 11:08 50.85651 20.39505 23653 ft 335 kts 26°
2026-05-01 11:08 50.87776 20.40974 23281 ft 332 kts 25°
2026-05-01 11:08 50.91983 20.43888 22551 ft 327 kts 25°
2026-05-01 11:09 50.94046 20.45319 22193 ft 326 kts 25°
2026-05-01 11:09 50.96141 20.46774 21827 ft 325 kts 25°
2026-05-01 11:09 50.98193 20.48200 21473 ft 324 kts 25°
2026-05-01 11:10 51.02288 20.51050 20761 ft 319 kts 25°
2026-05-01 11:10 51.04317 20.52464 20403 ft 319 kts 25°
2026-05-01 11:10 51.06342 20.53877 20048 ft 317 kts 25°
2026-05-01 11:10 51.08354 20.55282 19985 ft 316 kts 25°
2026-05-01 11:11 51.10357 20.56682 19688 ft 317 kts 25°
2026-05-01 11:11 51.12374 20.58094 19358 ft 315 kts 25°
2026-05-01 11:11 51.14390 20.59505 18970 ft 316 kts 25°
2026-05-01 11:11 51.16320 20.60859 18071 ft 318 kts 25°
2026-05-01 11:12 51.18337 20.62273 17635 ft 306 kts 25°
2026-05-01 11:12 51.20278 20.63637 17287 ft 301 kts 25°
2026-05-01 11:12 51.22094 20.64914 16978 ft 302 kts 25°
2026-05-01 11:12 51.24114 20.66335 16630 ft 303 kts 26°
2026-05-01 11:13 51.26048 20.67697 16296 ft 304 kts 25°
2026-05-01 11:13 51.27967 20.69050 15957 ft 303 kts 25°
2026-05-01 11:13 51.29950 20.70221 15692 ft 303 kts 21°
2026-05-01 11:13 51.31950 20.71314 15364 ft 301 kts 21°
2026-05-01 11:14 51.33931 20.72399 15029 ft 301 kts 21°
2026-05-01 11:14 51.35900 20.73481 14689 ft 299 kts 21°
2026-05-01 11:14 51.37862 20.74560 14363 ft 298 kts 21°
2026-05-01 11:14 51.39813 20.75634 14033 ft 296 kts 20°
2026-05-01 11:15 51.41751 20.76702 13708 ft 295 kts 20°
2026-05-01 11:15 51.43695 20.77774 13384 ft 294 kts 20°
2026-05-01 11:15 51.45627 20.78841 13061 ft 294 kts 20°
2026-05-01 11:15 51.47558 20.79908 12741 ft 294 kts 20°
2026-05-01 11:16 51.49495 20.80980 12416 ft 293 kts 20°
2026-05-01 11:16 51.51419 20.82045 12080 ft 291 kts 20°
2026-05-01 11:16 51.53321 20.83099 11758 ft 286 kts 20°
2026-05-01 11:16 51.55206 20.84144 11438 ft 279 kts 20°
2026-05-01 11:17 51.57025 20.85154 11130 ft 273 kts 20°
2026-05-01 11:17 51.58786 20.86132 10834 ft 267 kts 20°
2026-05-01 11:17 51.60533 20.87103 10539 ft 261 kts 20°
2026-05-01 11:17 51.62210 20.88037 10255 ft 254 kts 20°
2026-05-01 11:18 51.63871 20.88962 9978 ft 251 kts 20°
2026-05-01 11:18 51.65540 20.89892 9708 ft 251 kts 20°
2026-05-01 11:18 51.67196 20.90816 9431 ft 251 kts 20°
2026-05-01 11:18 51.68849 20.91738 9152 ft 251 kts 20°
2026-05-01 11:19 51.70510 20.92666 8875 ft 252 kts 20°
2026-05-01 11:19 51.72157 20.93587 8595 ft 251 kts 20°
2026-05-01 11:19 51.73827 20.94522 8309 ft 252 kts 19°
2026-05-01 11:19 51.75472 20.95443 7936 ft 254 kts 19°
2026-05-01 11:20 51.77156 20.96387 7486 ft 252 kts 19°
2026-05-01 11:20 51.78804 20.97311 7161 ft 249 kts 19°
2026-05-01 11:20 51.80436 20.98226 6878 ft 250 kts 19°
2026-05-01 11:20 51.82099 20.99160 6591 ft 250 kts 19°
2026-05-01 11:21 51.83750 21.00088 6316 ft 250 kts 19°
2026-05-01 11:21 51.85384 21.01008 6036 ft 250 kts 19°
2026-05-01 11:21 51.87030 21.01934 5760 ft 250 kts 19°
2026-05-01 11:21 51.88673 21.02860 5490 ft 249 kts 19°
2026-05-01 11:22 51.90328 21.03793 5209 ft 250 kts 19°
2026-05-01 11:22 51.91965 21.04717 4927 ft 249 kts 18°
2026-05-01 11:22 51.93607 21.05644 4658 ft 249 kts 19°
2026-05-01 11:22 51.95222 21.06557 4385 ft 248 kts 19°
2026-05-01 11:23 51.96861 21.07484 4105 ft 248 kts 18°
2026-05-01 11:23 51.98493 21.08408 3833 ft 247 kts 18°
2026-05-01 11:23 52.00134 21.09338 3557 ft 246 kts 18°
2026-05-01 11:23 52.01797 21.09909 3278 ft 246 kts 354°
2026-05-01 11:24 52.03354 21.08898 2984 ft 247 kts 326°
2026-05-01 11:24 52.04763 21.07248 2790 ft 247 kts 325°
2026-05-01 11:24 52.07442 21.04647 2148 ft 205 kts 334°
2026-05-01 11:25 52.08632 21.03612 1880 ft 187 kts 332°
2026-05-01 11:25 52.10584 21.01920 1473 ft 140 kts 335°
2026-05-01 11:25 52.11377 21.01233 1274 ft 121 kts 336°
2026-05-01 11:26 52.12103 21.00602 1117 ft 120 kts 334°
2026-05-01 11:26 52.13571 20.99330 796 ft 117 kts 331°
2026-05-01 11:26 52.14297 20.98700 654 ft 119 kts 333°
2026-05-01 11:27 52.15018 20.98046 480 ft 119 kts 336°
2026-05-01 11:27 52.15736 20.97445 375 ft 111 kts 330°
2026-05-01 11:27 52.16315 20.96936 369 ft 73 kts 331°
2026-05-01 11:27 52.16646 20.96653 369 ft 35 kts 330°
2026-05-01 11:28 52.16834 20.96515 369 ft 28 kts 355°
2026-05-01 11:28 52.17024 20.96517 369 ft 19 kts
2026-05-01 11:28 52.17086 20.96561 369 ft 9 kts 59°
2026-05-01 11:29 52.17148 20.96755 369 ft 10 kts 60°
2026-05-01 11:29 52.17173 20.96812 368 ft 5 kts 28°
2026-05-01 11:29 52.17241 20.96771 368 ft 6 kts 332°
2026-05-01 11:30 52.17281 20.96736 368 ft 6 kts 332°
2026-05-01 11:30 52.17319 20.96702 368 ft 2 kts 323°
2026-05-01 11:30 52.17322 20.96677 368 ft 2 kts 256°
2026-05-01 11:30 52.17308 20.96637 369 ft 5 kts 233°
2026-05-01 11:31 52.17291 20.96615 368 ft 2 kts 207°
2026-05-01 11:31 52.17276 20.96603 368 ft 0 kts 206°
2026-05-01 11:31 52.17276 20.96602 368 ft 0 kts 206°